Weather in Nikol'skoye

Russia / Saint-Petersburg and Leningrad Oblast     59°27′35″N   29°59′37″E
temp.,
°C
wind,
m/s
gust,
m/s
humid.,
%
clouds,
%
prec.,
mm/h
press.,
hPa
HPBL,
m
25 may, wed
wed2500:00+3e23800 0.0 101646
03:00+2se11910 0.0 101714
06:00+4sse11780 0.0 101753
09:00+11ese11510 0.0 1016552
12:00+17ne113678 0.0 10151257
15:00+18nne2337100 0.0 10131660
18:00+17ene2240100 0.0 10121141
21:00+11e376026 0.0 1012176
26 may, thu
thu2600:00+8ese386089 0.0 1011189
03:00+8se3105988 0.0 1009263
06:00+8ese31063100 0.0 1007287
09:00+12se4856100 0.0 1004472
12:00+12se4765100 0.1 1003709
15:00+9ene2596100 3.8 1002257
18:00+9n3697100 6.2 1000234
21:00+8ne2399100 13.6 100098
27 may, fri
fri2700:00+8nnw2399100 1.1 99998
03:00+8nw2498100 1.1 999109
06:00+8w2696100 0.0 998239
09:00+11wsw3682100 0.0 997579
12:00+10sw379064 0.6 997540
15:00+12wsw478229 2.3 9961048
18:00+12wsw25777 2.2 995842
21:00+9se22874 2.4 99433
28 may, sat
sat2800:00+6ese229491 0.0 99316
03:00+5se119690 0.0 99221
06:00+7wnw1195100 0.8 99253
09:00+8nw2394100 1.6 993243
12:00+12n2372100 0.4 994945
15:00+10nnw258996 2.3 996154
18:00+12n127791 1.3 997555
21:00+9ssw118981 2.6 99922
29 may, sun
sun2900:00+7sw249665 0.6 100087
03:00+4wsw249411 0.0 99967
06:00+5wsw38926 0.0 1000185
09:00+11wsw467516 0.0 1000708
12:00+9w4792100 0.6 1002545
15:00+12w5766100 0.9 10041423
18:00+11w476322 0.1 10061068
21:00+9wsw38765 0.1 1007342